Theta_e
322 324 324 326 325 324 324 322 319 317 316 320 327 328 328 326 320 320 321 321 322 323 323 323 323 322 323 323 322 323 323 323 323 323 323 325 326 326 327 327 326 322 318 315 314 313 312 313 313 313 312 312 315 316 316 317 318 320 323 325 323 324 323 322 322 321 321 320 319 319 320 320 319 319 318 318 319 319 320 321 321 320 320 328 335 335 331 331
322 324 324 325 325 324 323 323 320 318 317 318 324 328 328 328 323 319 320 321 321 322 323 322 323 323 323 322 322 322 322 322 322 323 323 325 326 326 327 327 326 322 318 316 316 315 312 312 312 312 312 313 316 317 318 318 317 320 324 324 322 323 320 319 319 318 320 320 318 319 320 320 319 318 318 318 319 318 319 320 321 320 320 326 336 336 332 331
317 323 324 325 324 324 323 323 321 319 317 316 320 326 328 328 325 321 320 320 320 321 322 322 323 323 322 322 322 322 322 322 322 322 323 324 325 326 327 327 326 322 318 317 317 316 313 311 311 312 312 313 315 317 319 319 318 318 322 323 323 321 318 317 316 317 318 319 318 319 320 320 319 318 318 317 318 318 318 319 320 321 320 323 333 335 332 331
312 318 323 325 324 324 323 323 322 320 318 316 317 322 327 329 328 324 320 320 320 321 321 321 322 323 323 322 322 322 321 322 323 322 323 324 325 326 326 327 327 324 319 317 318 317 315 311 311 312 312 312 314 317 318 318 319 318 320 322 321 318 317 317 315 316 318 318 319 319 319 319 319 318 318 318 318 318 317 318 318 321 320 319 328 333 332 330
309 312 319 324 325 324 324 322 321 320 319 318 317 318 323 327 329 327 323 321 320 321 321 321 322 322 323 323 323 322 322 325 324 321 323 324 325 326 327 327 327 327 322 316 317 317 315 312 311 312 312 313 314 317 318 318 318 318 319 319 317 317 317 315 315 315 317 318 319 318 319 319 318 318 317 318 318 318 317 318 318 319 321 318 322 329 330 328
310 310 315 323 325 324 324 323 321 321 320 318 317 316 318 323 326 327 326 324 322 321 321 322 322 322 323 323 323 322 323 326 321 318 323 324 325 326 327 328 326 327 323 317 316 316 314 311 311 313 312 313 315 317 318 318 318 318 319 318 316 317 315 315 314 315 317 318 319 318 319 318 318 317 318 318 317 318 317 318 319 318 320 319 317 321 324 324
311 310 315 322 325 324 324 323 321 321 321 319 317 317 316 319 322 324 325 325 325 324 322 323 323 323 324 324 323 323 323 324 321 318 322 325 325 327 328 326 323 324 324 318 315 316 313 311 311 313 312 312 314 316 317 317 317 317 318 317 315 315 314 314 314 315 316 317 318 318 318 318 317 317 317 318 317 317 317 318 319 318 319 320 318 316 317 317
311 310 315 321 323 323 324 322 321 321 321 319 318 317 317 318 319 322 324 323 325 326 325 325 324 324 324 324 323 322 322 323 324 320 321 326 325 327 328 324 320 320 323 319 316 316 312 311 312 312 312 312 313 315 316 318 317 317 317 317 315 314 314 313 314 314 315 315 316 318 318 317 317 317 317 318 317 316 316 317 318 320 320 320 319 315 315 315
314 310 313 320 323 323 323 322 321 321 320 320 318 317 318 319 320 321 323 323 324 326 327 326 325 325 325 324 323 322 323 323 325 321 320 325 326 327 327 323 320 317 320 320 316 315 312 311 313 312 312 313 313 313 314 317 317 317 317 316 315 314 313 313 313 313 314 314 315 317 317 316 315 316 316 317 317 317 316 315 317 321 323 321 319 317 315 316
317 314 313 319 324 323 323 322 321 320 319 319 318 317 318 320 320 321 322 323 323 325 327 327 326 325 324 323 323 323 323 322 324 321 318 325 326 326 325 322 321 318 318 319 316 314 311 311 313 312 312 313 313 313 314 316 316 317 317 315 314 313 313 314 314 313 313 314 314 316 316 315 315 315 316 316 316 317 316 315 315 318 321 322 320 317 316 316
317 315 313 317 323 324 322 321 321 320 319 318 318 317 318 320 321 321 322 322 323 326 327 327 325 325 323 323 323 323 321 320 324 321 316 324 327 325 323 320 320 319 317 318 317 314 310 311 313 312 312 312 312 313 314 314 315 316 316 315 314 314 314 314 314 313 314 314 314 315 316 314 314 315 315 316 316 316 316 315 314 314 318 322 321 317 316 315
315 315 314 317 323 323 321 321 320 319 318 318 317 317 318 320 321 321 322 322 323 326 326 326 325 324 322 322 323 322 319 320 322 316 314 322 326 324 321 320 319 317 316 316 316 313 310 311 312 312 312 312 312 313 314 314 315 316 316 316 315 314 314 314 314 313 314 314 314 315 316 315 315 315 315 315 317 316 316 316 315 315 316 320 322 321 319 316
314 314 314 317 322 322 320 320 320 319 317 317 317 317 317 319 320 321 321 321 324 326 325 325 324 322 321 321 323 321 318 320 319 314 312 317 323 323 319 319 319 316 316 315 314 312 310 311 311 312 312 312 312 313 313 314 314 315 315 316 316 315 315 315 315 314 314 314 314 315 317 318 316 315 315 315 316 316 316 316 315 316 316 318 321 323 322 320
315 314 315 318 322 321 320 321 319 318 316 317 317 317 317 319 320 321 320 321 324 325 324 324 323 320 319 320 323 322 316 316 317 316 314 314 319 321 319 318 318 316 316 315 314 313 310 311 312 311 312 312 313 313 313 314 314 314 315 316 318 317 316 315 315 314 315 314 313 315 316 319 317 315 315 315 315 315 315 316 317 316 316 318 320 321 320 320
318 317 316 320 323 321 320 320 319 317 317 317 318 317 317 317 319 320 319 320 323 324 324 323 321 319 319 319 319 322 319 314 314 316 314 312 316 320 319 317 317 318 319 315 313 312 310 312 311 311 312 312 312 313 313 314 313 314 315 316 318 318 316 316 315 314 315 314 312 314 316 318 316 315 315 315 315 314 314 316 317 317 316 317 319 319 317 316
318 317 316 320 322 320 320 320 318 317 317 317 317 317 317 317 318 319 318 319 321 323 322 320 319 318 320 320 316 318 319 315 314 314 313 311 316 320 318 317 318 319 317 313 311 311 311 312 311 312 312 312 312 313 314 315 315 314 315 317 318 317 316 316 315 314 315 314 313 314 316 317 316 314 314 315 314 314 315 315 316 317 316 316 318 318 317 316
317 316 317 321 321 320 320 319 318 317 317 316 316 317 316 317 318 317 318 319 321 322 320 318 318 318 319 318 315 315 317 316 314 314 313 312 317 321 320 318 317 314 312 311 311 311 311 311 311 312 312 312 312 313 315 315 315 315 315 317 318 316 316 316 316 315 315 314 314 314 315 316 316 314 314 314 314 314 314 315 315 316 316 316 317 317 317 316
317 316 319 321 320 320 319 318 318 317 316 315 316 317 317 317 316 316 317 319 320 319 317 316 317 320 320 316 314 314 317 318 315 313 312 312 315 319 318 315 312 311 311 311 311 311 311 311 312 313 313 312 312 312 315 316 316 316 316 316 316 316 316 317 316 316 316 315 315 314 314 315 315 314 314 314 314 314 314 314 315 316 316 317 317 317 316 316
317 318 321 321 319 319 319 318 317 316 316 315 316 317 317 316 315 315 317 319 318 316 316 315 316 321 321 318 317 315 317 319 316 314 312 311 312 313 314 312 311 312 311 311 311 311 311 312 312 313 313 312 311 312 314 316 316 316 317 316 316 317 316 316 316 315 315 315 316 315 314 314 314 315 314 313 313 314 314 314 315 315 316 316 317 317 317 317
316 319 322 320 319 319 318 318 316 316 315 315 316 316 315 315 315 316 317 318 319 319 318 316 317 319 317 317 317 314 315 318 317 315 313 312 311 311 312 311 312 312 311 312 313 312 312 314 313 312 313 312 311 312 313 315 315 315 317 316 316 318 316 315 315 314 314 315 316 316 316 315 315 316 315 313 313 314 314 314 314 315 315 315 316 316 317 317
315 319 321 320 320 319 318 317 316 316 315 315 316 315 314 315 316 317 317 318 320 320 318 318 320 318 314 316 316 314 314 314 315 315 313 312 312 312 312 311 312 311 311 313 313 312 312 314 314 312 312 313 312 313 313 314 315 314 316 316 316 318 316 314 315 313 313 315 317 316 316 316 316 318 316 314 313 313 313 314 314 315 315 315 316 316 316 316
315 320 320 319 320 318 317 316 315 315 314 314 314 314 314 315 316 316 318 319 319 320 316 317 320 316 313 315 315 315 314 312 313 314 313 312 312 312 312 312 312 312 313 312 313 313 313 314 314 313 312 314 314 313 313 314 315 316 316 316 316 317 316 315 315 314 313 314 317 318 318 317 316 318 316 314 313 313 314 314 314 315 315 315 315 315 315 315
316 320 320 319 319 317 317 316 315 314 313 314 313 314 315 315 314 315 317 318 318 317 313 315 319 315 312 314 313 314 313 311 312 313 312 312 312 312 312 312 312 313 313 312 312 314 314 314 313 313 313 313 315 313 313 314 315 317 316 315 317 319 318 316 315 314 313 313 316 318 318 317 316 317 317 315 315 315 315 315 315 315 315 315 315 315 315 315
319 320 320 318 318 317 316 315 314 313 313 314 313 314 315 314 314 315 316 316 314 313 312 315 318 313 312 313 312 313 313 311 312 312 312 312 312 312 312 312 312 313 313 312 312 313 314 312 310 312 314 314 314 313 314 314 313 317 318 317 318 319 319 319 316 313 313 315 316 315 315 316 315 315 316 316 316 316 316 316 315 315 315 315 315 315 316 316
320 320 319 318 317 316 315 314 314 313 313 314 313 314 315 314 315 315 313 314 313 311 312 315 316 313 312 312 312 314 313 312 312 312 312 312 312 312 312 313 313 313 313 312 312 313 313 310 309 313 315 314 314 313 316 316 314 315 319 319 317 318 320 320 317 315 314 316 317 314 315 318 317 316 316 315 316 316 315 315 315 316 316 315 316 316 316 317
320 319 319 317 317 315 314 314 313 313 314 314 313 313 314 314 314 314 312 312 312 311 312 314 314 312 313 312 312 314 313 312 312 312 312 312 313 312 312 313 313 313 313 312 313 314 311 308 310 315 316 316 316 314 316 318 314 313 319 321 318 319 323 322 319 317 315 317 319 317 317 319 318 316 317 316 316 317 316 315 315 316 316 316 316 316 315 316
319 318 318 317 316 315 314 314 313 313 313 313 312 312 313 313 313 313 312 312 313 311 311 312 312 313 314 312 312 312 313 313 313 312 311 312 313 312 312 312 312 313 313 312 314 314 310 309 313 316 316 318 316 314 316 316 314 316 323 325 320 321 325 325 322 319 318 319 320 318 317 317 318 318 319 319 317 318 318 318 317 316 317 317 316 316 315 315
319 317 317 316 315 315 314 313 313 314 313 312 312 312 312 312 312 313 312 311 312 312 310 310 311 313 313 312 312 312 313 313 313 312 311 311 313 311 312 312 312 314 313 312 315 314 312 313 315 315 316 317 315 317 321 318 315 320 324 324 321 321 324 324 322 320 320 321 320 319 317 317 320 321 319 319 317 318 319 319 318 316 316 317 316 316 316 314
318 317 316 316 315 314 313 313 313 313 312 311 311 311 312 311 311 313 312 310 311 311 310 310 311 312 313 312 312 312 312 313 313 312 311 311 312 311 312 313 312 314 313 313 317 316 313 312 313 315 316 317 317 318 323 323 318 319 321 322 322 322 322 321 321 318 318 319 320 322 319 316 320 321 317 318 318 318 319 318 317 316 316 317 316 316 316 315
317 317 316 315 315 314 313 313 313 312 311 310 310 311 311 310 310 311 311 310 311 310 309 310 310 312 312 311 312 313 312 312 312 311 311 311 311 310 312 313 312 314 316 318 318 313 310 309 311 314 313 313 315 314 317 321 318 317 320 322 321 319 319 319 319 317 318 320 319 321 319 316 319 321 317 319 319 318 318 316 317 318 316 316 316 316 317 316
317 316 316 315 314 313 313 313 312 312 309 309 311 311 310 310 310 310 310 311 312 311 310 310 311 312 312 311 312 312 312 312 311 311 311 311 310 310 312 313 313 316 318 319 318 313 310 310 312 313 309 311 315 314 314 316 315 318 321 320 319 318 317 317 317 317 319 321 317 318 320 318 319 319 316 317 318 317 317 315 318 319 317 317 317 317 317 316
316 316 315 315 314 313 313 312 312 311 308 309 310 310 310 309 309 310 311 312 313 312 310 311 312 312 312 312 312 312 312 312 311 311 311 310 310 310 312 314 314 316 315 317 318 316 314 313 313 312 309 311 316 315 314 314 315 320 320 317 319 318 317 317 318 318 319 319 315 314 317 319 319 317 316 317 315 316 317 314 315 317 317 317 316 316 315 315
316 316 315 314 313 313 313 312 311 309 308 310 309 310 311 308 308 311 311 311 313 312 311 311 312 312 312 312 313 312 313 313 311 311 311 311 311 311 312 314 314 315 314 316 318 318 317 315 313 314 312 311 315 314 314 314 314 317 317 318 320 318 316 317 318 318 319 318 315 314 316 319 318 316 317 317 314 315 315 314 315 315 316 317 315 315 315 313
316 315 314 314 313 312 313 311 309 308 309 310 309 310 311 308 309 312 312 311 312 311 311 311 312 312 312 312 313 312 313 313 312 311 312 312 311 311 312 313 314 314 315 316 316 315 317 315 313 316 314 312 315 315 316 315 314 315 318 320 320 317 317 318 318 320 322 319 314 313 317 319 318 318 318 315 313 314 314 313 314 314 315 315 315 314 314 313
315 315 314 313 313 312 312 310 308 308 309 310 310 310 311 309 309 311 312 312 312 311 310 311 312 312 312 313 313 312 313 314 312 312 312 312 311 311 312 311 313 314 314 315 315 314 315 316 314 313 312 313 316 316 315 314 313 315 319 320 320 319 320 319 318 318 320 319 317 316 319 320 318 318 316 314 315 315 313 313 313 313 314 313 312 312 312 313
315 315 314 313 312 312 312 310 307 308 309 310 310 310 311 310 310 312 313 312 312 311 311 311 312 312 311 313 313 313 314 314 313 312 313 312 312 312 312 312 313 313 314 315 316 315 315 316 314 312 312 312 312 312 313 313 314 316 317 318 320 321 323 320 316 315 314 317 320 319 319 318 315 316 316 316 319 317 314 313 312 312 313 312 312 312 312 314
315 314 313 312 312 311 311 310 308 308 310 310 310 311 311 311 311 313 313 312 311 311 311 311 312 311 311 312 313 313 314 315 313 313 313 313 313 313 312 313 313 312 314 315 315 316 316 316 313 313 315 311 307 309 311 310 313 316 317 317 317 318 320 317 316 317 315 315 317 318 318 317 315 318 320 317 318 319 316 314 312 312 313 313 313 312 313 314
314 313 313 312 311 311 311 310 308 309 311 311 310 311 312 313 313 313 313 312 312 312 311 311 312 312 311 311 313 314 315 314 313 313 314 313 314 314 312 313 313 312 314 314 315 318 318 318 314 312 314 312 309 312 313 310 311 314 315 316 317 319 318 315 314 316 317 316 316 317 317 317 316 317 318 317 318 319 317 316 315 314 313 313 313 313 312 313
314 313 312 312 311 311 311 310 309 310 311 312 311 311 312 314 315 313 312 312 312 312 312 312 312 312 312 311 313 314 314 314 313 313 314 313 314 315 312 313 314 313 312 313 316 319 318 321 317 312 312 314 313 313 314 313 312 312 313 313 317 320 318 317 317 315 316 316 316 317 316 318 320 318 315 317 319 318 317 318 317 314 313 313 313 313 313 313
313 313 313 312 311 311 310 309 310 310 312 312 311 312 313 315 315 313 312 313 313 312 313 314 313 312 312 313 314 314 314 314 314 314 315 314 314 314 313 313 314 314 313 314 317 318 316 320 321 313 311 313 315 315 315 314 312 312 314 313 314 316 315 317 318 316 316 316 316 316 315 318 321 318 316 315 316 320 321 322 320 314 313 315 314 314 314 314
313 313 313 311 311 310 310 310 310 310 311 311 311 313 315 315 315 313 313 313 313 313 314 314 314 312 313 314 314 314 314 314 314 314 315 314 313 315 315 314 314 314 314 315 318 319 315 317 319 314 312 314 316 316 314 315 315 313 314 314 313 315 317 317 317 317 315 315 316 315 316 324 324 317 318 317 315 318 317 317 316 313 311 312 313 314 315 315
313 313 313 311 311 310 310 310 311 310 311 311 312 314 315 314 314 314 314 313 314 315 315 314 314 313 314 314 314 314 314 314 315 314 315 314 314 315 315 313 313 313 313 315 318 319 318 318 316 314 314 315 314 312 309 311 316 316 314 316 315 314 317 317 316 318 317 314 315 313 316 326 325 318 319 316 312 312 311 310 310 310 310 310 310 312 313 314
312 312 312 312 311 310 310 310 311 310 310 311 312 314 313 313 314 315 315 315 314 316 315 315 314 314 315 315 314 315 313 313 315 315 314 315 315 315 315 313 313 313 314 316 317 316 317 319 317 315 314 313 313 312 310 310 315 316 314 316 316 313 314 317 318 320 320 318 316 314 313 318 322 322 316 310 309 310 309 309 309 308 310 310 310 311 311 312
311 311 312 312 311 310 310 310 311 311 311 311 313 315 313 313 315 315 315 315 314 316 316 315 315 314 315 316 314 315 313 313 315 315 314 316 316 314 313 313 314 313 313 314 315 314 315 318 318 317 317 316 315 314 314 314 314 315 315 314 314 314 316 318 318 317 318 321 319 316 315 316 322 324 316 311 314 315 310 309 310 309 310 310 310 311 311 312
311 311 311 311 311 310 310 311 311 311 311 312 313 314 314 314 315 314 314 315 314 315 316 316 316 316 317 317 315 315 313 314 316 316 315 318 316 314 313 313 313 313 312 313 312 313 317 318 316 317 317 316 316 315 316 316 313 314 318 316 314 317 318 316 317 315 317 322 320 316 316 316 317 318 315 316 320 319 313 310 310 310 310 310 311 311 311 312
310 312 311 310 311 310 310 312 312 311 311 312 313 314 314 314 314 313 314 315 314 314 316 317 317 317 317 317 317 316 314 315 318 316 317 319 317 314 314 313 313 312 312 313 311 314 319 317 314 315 315 314 315 316 317 317 314 314 318 318 316 318 317 315 316 316 316 319 318 317 317 316 314 315 316 317 319 320 316 311 310 310 310 311 311 311 312 312
308 311 311 311 311 310 310 311 312 312 311 312 312 313 313 314 314 313 314 316 314 314 316 316 316 316 317 316 317 316 314 316 319 317 318 318 316 314 313 313 313 313 312 312 311 316 320 317 315 316 316 315 317 319 317 316 315 315 316 317 317 317 317 317 316 316 316 316 315 317 318 317 314 314 315 316 318 320 316 311 311 311 310 311 311 311 312 312
305 307 308 310 311 311 310 311 311 312 312 311 312 312 313 313 313 313 315 316 315 314 316 316 315 316 316 316 316 316 315 317 318 318 318 317 314 314 314 313 312 311 312 312 312 316 318 316 316 316 315 317 317 318 317 316 316 316 316 316 317 317 317 317 316 315 316 316 314 315 318 318 315 314 315 315 316 316 315 312 312 312 311 312 311 311 312 312
303 304 305 308 310 311 311 311 311 312 312 311 312 312 312 313 312 313 315 316 315 315 315 315 315 315 316 316 316 316 316 317 316 317 317 314 312 314 315 314 311 310 312 315 315 315 315 315 317 315 315 316 317 319 321 319 317 317 317 316 315 316 316 316 315 314 315 316 315 315 316 316 314 314 315 314 314 314 313 313 313 312 312 312 311 311 312 312
302 303 304 306 309 311 311 311 312 313 312 311 312 312 312 312 312 312 314 314 314 315 314 314 315 315 316 317 316 316 316 316 317 317 316 313 312 314 314 314 313 311 312 314 314 313 313 316 317 316 315 316 317 320 322 322 320 318 318 318 317 317 316 315 314 314 314 314 314 314 315 315 313 313 313 314 314 313 312 312 312 312 311 311 311 311 311 311
301 302 303 305 309 311 311 311 312 312 312 311 311 312 312 312 312 312 314 313 313 314 313 314 316 316 316 317 316 317 317 317 318 316 313 313 312 313 314 313 312 313 314 315 315 313 315 317 316 316 316 315 316 318 319 318 318 316 317 319 319 319 318 315 314 314 314 314 315 315 315 314 312 312 313 313 313 312 311 311 312 311 311 311 311 312 312 312
301 302 303 305 308 310 311 312 312 312 312 311 311 312 312 312 312 312 314 314 313 313 312 313 316 315 315 316 316 316 316 316 316 314 312 312 312 311 312 311 310 312 315 315 314 313 315 317 316 316 315 315 316 318 316 315 314 314 314 316 317 317 317 316 315 315 314 314 315 315 314 313 313 313 314 313 313 311 311 312 312 312 312 312 312 312 312 312
Wind_Speed
38 47 49 46 45 43 41 40 40 43 44 46 47 46 42 41 44 44 41 39 36 33 31 29 29 28 26 24 24 23 22 21 21 23 27 29 25 20 18 17 15 12 10 11 6 1 2 2 7 9 9 6 4 5 6 8 8 5 2 3 3 4 4 2 3 5 6 7 7 15 18 11 9 9 8 8 8 9 12 10 9 9 8 11 15 16 20 25
36 45 50 46 46 44 43 41 40 41 43 45 47 47 43 41 43 44 42 40 38 35 32 30 29 27 25 23 21 20 19 20 20 24 29 29 25 21 18 17 16 13 11 16 13 4 5 5 7 10 8 7 6 5 5 7 7 5 2 2 4 4 1 4 5 6 6 10 10 14 17 11 12 14 12 8 7 11 10 9 10 9 10 14 18 19 19 23
40 40 48 49 45 44 44 43 39 39 42 43 45 46 45 42 42 44 43 41 40 38 35 31 29 26 23 21 19 17 17 17 21 29 30 29 27 22 19 17 17 15 12 17 20 12 6 10 8 10 9 9 9 8 6 5 6 7 4 2 4 0 3 7 10 8 7 14 13 11 16 11 15 17 12 10 9 10 8 10 14 12 14 17 20 19 19 22
49 41 44 49 47 45 45 44 40 38 40 41 43 45 45 43 41 43 43 42 41 39 36 33 29 26 23 20 17 15 13 11 20 31 29 28 29 23 20 19 18 17 15 16 20 19 9 11 7 9 11 10 11 10 7 7 6 5 4 2 4 4 4 6 9 8 8 13 13 13 12 9 17 17 13 13 8 7 10 14 17 16 17 20 22 20 19 21
53 47 44 49 49 45 44 44 41 37 38 41 41 42 44 44 42 41 42 43 42 40 37 34 31 28 24 21 17 15 11 4 11 25 28 29 30 23 19 20 19 18 18 18 18 19 12 11 6 6 8 8 10 8 6 11 9 2 6 4 4 6 4 5 6 7 7 9 12 13 9 9 15 13 14 14 6 5 11 15 17 18 18 18 22 21 20 21
52 51 47 50 51 46 43 42 41 37 37 40 40 41 42 42 42 40 39 40 41 41 38 35 32 29 25 21 19 17 14 6 5 10 21 29 29 24 19 20 19 18 20 21 19 16 11 12 7 3 6 7 9 6 5 12 12 3 6 4 4 5 4 3 3 8 7 6 10 11 9 11 11 7 13 15 7 7 11 13 14 18 19 16 19 20 20 21
51 51 47 49 53 48 44 42 41 38 36 38 39 39 39 40 40 39 38 38 38 39 39 37 32 28 25 22 21 20 19 17 9 7 13 28 27 24 21 21 20 19 24 23 21 19 12 12 10 8 7 6 8 8 9 12 12 7 4 2 3 5 4 2 5 8 7 5 7 9 9 10 9 5 11 15 7 9 10 12 13 16 18 17 17 18 18 19
49 53 50 48 52 49 45 42 40 38 36 37 38 37 36 37 38 38 37 35 33 33 36 37 32 28 26 25 23 20 20 26 22 10 8 25 26 23 22 24 22 20 27 26 23 22 14 12 14 11 5 7 10 9 8 9 9 8 3 4 4 5 4 3 6 8 6 5 6 9 8 9 10 6 8 15 10 9 8 9 12 14 16 18 17 17 17 19
45 53 54 48 53 51 44 42 41 39 36 36 37 36 34 34 35 37 36 34 32 29 31 33 30 28 26 27 24 17 21 27 26 14 8 23 26 24 24 26 26 22 26 28 27 23 15 12 15 13 7 8 12 10 9 4 4 8 5 6 6 6 5 5 5 7 4 4 6 7 6 6 8 5 6 15 13 10 10 8 11 14 16 18 17 17 17 18
43 51 53 47 53 53 46 43 42 40 37 36 36 35 33 33 34 35 35 33 30 27 28 29 28 28 26 27 20 10 16 21 24 18 10 22 27 26 25 25 27 24 25 32 32 24 17 15 12 13 12 9 9 8 10 5 4 5 6 9 7 6 5 5 5 6 5 4 6 5 4 4 4 4 3 13 17 14 14 12 11 13 16 17 16 17 17 17
44 49 48 43 50 52 46 45 43 41 39 36 35 34 33 33 34 34 34 32 29 27 29 29 28 28 27 27 19 10 9 12 20 18 11 23 27 26 27 25 27 28 26 31 32 23 19 18 11 9 10 6 6 6 8 7 8 3 9 9 6 6 5 5 5 7 5 3 7 4 2 4 2 3 5 11 18 17 17 16 14 12 15 17 16 17 18 18
46 49 47 43 52 52 45 45 44 41 38 36 34 34 34 34 34 34 33 30 28 28 30 29 28 29 27 24 19 13 7 10 20 17 12 23 27 27 29 26 27 29 25 25 26 22 20 19 13 9 8 5 4 3 4 7 7 2 6 3 4 5 3 6 5 8 7 3 9 4 1 2 3 8 12 13 18 18 17 17 17 15 14 16 17 18 19 19
49 50 49 46 52 52 47 45 42 39 36 34 33 33 35 35 34 34 32 30 29 31 31 29 29 29 23 17 19 15 7 12 23 17 12 21 26 29 31 28 26 27 24 21 22 20 20 18 13 11 10 7 4 3 2 2 3 2 4 2 4 3 3 8 7 8 6 4 10 5 1 5 7 16 19 16 18 18 17 16 18 18 16 16 17 19 20 20
51 50 50 49 52 51 48 45 40 38 34 33 33 33 36 35 34 33 30 29 31 32 31 29 30 28 17 10 15 18 9 9 19 18 14 18 25 31 31 29 26 27 25 21 21 20 19 18 15 11 10 8 5 3 1 1 2 2 3 3 3 2 3 7 9 10 5 4 10 5 1 5 5 12 20 19 18 18 19 17 18 20 19 18 18 20 21 21
52 49 46 51 56 51 47 44 39 37 34 33 33 32 35 35 34 32 28 29 30 31 31 31 32 24 13 7 10 18 14 8 14 19 18 16 23 33 32 29 27 27 26 22 22 20 17 16 15 11 7 7 5 4 1 2 2 3 3 3 3 3 3 4 8 11 5 3 10 5 1 5 2 6 17 19 17 17 18 19 18 20 21 22 21 21 21 21
54 48 43 49 56 51 47 43 38 36 35 33 32 32 33 33 32 30 28 28 27 28 32 33 32 19 7 8 9 16 19 13 12 16 18 16 22 34 35 31 28 26 25 24 23 19 15 13 12 9 5 4 3 2 2 3 3 3 4 3 3 4 2 2 4 8 5 5 8 6 2 3 1 6 13 15 16 15 15 17 19 20 20 22 23 23 23 22
53 48 46 53 55 50 46 42 38 37 34 33 33 32 32 32 32 28 26 26 24 28 31 31 31 16 5 9 11 17 23 19 13 13 17 18 24 36 35 29 27 24 22 21 19 15 12 12 8 5 5 3 3 3 4 4 3 3 4 3 4 6 5 3 1 4 6 5 6 7 4 4 3 7 12 14 16 15 14 15 18 19 19 21 22 24 25 25
52 49 50 57 56 50 45 40 40 38 35 36 35 33 33 31 29 26 27 26 24 24 20 20 24 11 7 15 16 18 26 26 19 14 16 20 25 33 33 27 25 21 19 14 13 14 12 11 8 4 3 4 4 5 4 4 5 4 4 3 4 7 7 5 2 5 9 5 5 7 5 8 5 7 11 15 17 16 16 16 16 17 18 19 21 22 23 25
51 52 56 56 52 48 45 42 43 40 39 39 36 36 33 29 26 25 27 29 28 20 9 22 30 9 2 19 22 18 24 30 24 15 16 21 23 28 27 24 25 23 17 9 9 14 13 7 6 5 4 5 6 7 6 5 4 6 7 6 5 5 5 4 1 2 6 4 5 7 7 10 9 6 9 15 18 19 18 17 17 17 17 19 21 22 22 23
50 52 60 57 49 47 45 45 43 42 45 44 44 41 32 28 20 16 27 33 39 29 12 30 41 9 5 18 26 19 21 27 26 18 17 22 24 24 22 20 22 19 12 8 7 12 12 6 4 6 6 7 9 9 8 5 4 3 5 8 7 4 2 3 2 1 1 2 5 7 7 8 9 7 9 16 18 16 17 18 19 19 19 20 21 21 22 23
51 52 59 56 50 49 47 47 43 46 48 46 53 44 35 39 19 17 37 33 41 33 7 27 42 10 3 23 30 26 25 21 22 20 17 23 24 20 18 18 15 9 9 12 8 7 9 6 5 8 8 7 10 10 9 5 4 6 0 4 6 5 2 2 2 1 0 1 4 7 8 9 8 8 9 15 14 14 19 19 20 22 21 22 22 22 22 22
52 53 57 53 52 50 48 48 44 49 46 45 54 39 40 49 19 27 44 19 27 29 5 25 41 15 8 25 29 30 29 20 17 21 20 24 23 16 15 15 9 5 7 11 8 5 5 6 6 10 10 5 5 10 10 5 2 4 3 0 4 3 3 2 2 1 1 1 2 2 4 8 8 8 8 12 14 16 23 24 23 25 24 24 25 24 23 22
54 54 54 52 53 50 49 49 46 49 45 50 54 33 36 37 7 25 37 13 14 20 8 27 37 18 14 22 26 27 27 21 18 21 24 26 22 17 16 12 8 8 8 8 7 5 4 5 5 6 9 6 2 4 6 3 1 2 2 1 1 1 3 1 0 1 1 1 1 5 4 6 6 7 7 12 18 19 22 25 26 26 26 27 26 24 24 24
57 57 54 52 52 49 50 49 47 49 47 52 49 29 30 26 10 29 29 12 9 8 10 28 29 20 17 18 24 25 22 21 21 23 27 28 22 16 15 13 10 8 8 10 10 7 4 4 2 0 5 7 3 2 4 3 3 4 3 2 2 1 3 3 2 3 2 2 1 3 5 5 5 7 7 11 19 19 20 24 24 26 28 27 25 24 24 24
62 61 55 53 52 51 51 49 50 51 49 51 43 28 28 27 29 38 23 9 8 5 11 25 21 18 18 18 23 22 17 18 22 27 31 30 23 14 12 15 11 7 10 12 9 7 5 3 2 3 4 5 5 4 4 5 3 4 5 6 3 1 4 6 4 3 2 2 2 2 1 5 5 9 9 9 12 14 18 20 22 27 29 27 27 26 26 24
64 61 57 55 53 53 51 49 53 52 49 50 42 33 33 35 37 33 16 6 5 6 11 20 17 17 20 20 24 22 13 11 18 29 33 29 24 15 10 11 5 5 12 11 6 3 2 1 2 6 6 4 4 3 5 6 3 3 3 5 5 4 6 7 5 3 2 3 2 2 3 5 3 5 8 8 10 11 13 13 18 25 27 27 30 31 30 27
62 58 58 57 55 57 54 50 53 53 53 51 42 37 38 41 35 23 12 3 5 8 9 14 14 18 22 22 28 19 7 11 15 24 36 31 23 16 9 6 2 4 10 8 4 1 3 3 2 4 6 4 4 3 4 7 5 3 2 3 4 7 7 7 6 3 2 1 2 1 3 3 5 5 5 1 6 7 7 8 12 19 23 27 32 33 33 32
62 57 59 58 57 58 52 49 54 55 56 51 41 39 43 43 29 14 7 2 6 9 8 11 11 17 21 23 27 14 9 22 14 14 34 32 21 14 6 7 6 4 6 7 5 1 3 5 5 7 6 3 5 2 2 6 4 3 1 3 2 3 5 6 6 3 1 3 2 3 2 1 5 5 3 0 3 5 6 8 10 17 24 27 30 32 32 33
61 58 59 57 56 52 41 44 53 50 49 45 37 38 43 37 19 5 3 4 6 7 8 13 11 15 20 20 22 13 14 22 10 11 30 27 18 11 4 8 10 5 4 4 4 1 0 5 6 8 7 4 5 2 2 3 3 3 2 5 6 4 3 4 3 3 2 2 4 5 4 3 5 5 4 2 4 6 7 8 9 17 27 28 28 28 28 29
60 60 59 58 58 49 35 39 45 41 45 45 36 38 37 24 10 5 6 5 5 6 11 14 11 16 21 15 15 14 12 9 9 18 23 19 16 11 6 8 9 7 5 5 5 1 1 1 1 3 3 4 6 4 3 4 4 4 3 5 5 4 5 3 1 2 1 2 4 6 6 6 4 5 5 3 4 6 6 6 5 9 18 23 23 23 22 23
59 61 59 59 59 48 36 39 41 41 50 46 37 35 26 11 4 6 8 6 6 7 10 12 11 16 21 15 12 15 10 5 13 20 14 11 12 8 7 7 5 6 3 3 4 2 2 3 1 2 2 4 7 4 4 4 3 3 3 4 4 2 4 3 2 2 1 4 2 3 1 4 4 4 4 3 1 4 4 3 1 3 8 13 15 17 18 20
60 60 58 59 55 43 36 39 42 47 51 46 40 33 16 5 5 4 6 8 7 7 9 13 16 16 19 16 11 13 10 7 12 16 11 9 8 7 8 7 5 5 3 4 3 1 2 2 1 2 0 3 4 4 4 4 2 2 3 6 4 1 2 1 1 2 3 4 2 2 3 2 6 5 7 10 7 3 3 3 2 4 7 8 10 12 15 16
61 59 57 58 49 36 32 34 44 53 50 45 41 25 7 6 9 7 7 6 7 10 12 15 19 18 17 15 11 12 10 8 11 12 11 10 7 7 8 7 8 7 4 5 4 3 2 2 1 2 1 4 4 4 4 1 1 4 4 5 4 3 2 2 3 2 4 3 3 3 1 2 4 4 9 13 15 12 6 6 6 7 8 8 8 10 11 13
61 59 59 56 44 31 28 35 50 55 47 41 31 14 7 9 8 8 9 5 6 12 14 14 17 18 16 12 10 12 9 8 12 12 10 10 8 8 10 10 12 8 4 5 4 5 4 1 2 2 1 4 4 1 3 6 5 5 5 5 4 4 2 3 3 2 4 2 3 3 1 3 3 3 7 11 13 11 5 6 7 8 10 9 9 9 10 11
59 60 58 52 42 30 27 42 55 53 46 36 17 7 10 11 9 10 10 6 6 11 15 16 17 16 14 11 10 13 9 6 11 11 9 10 10 10 10 10 13 10 6 6 4 5 6 3 1 2 1 3 3 3 2 6 4 2 3 4 2 4 2 2 2 2 3 0 2 2 2 4 5 5 9 8 8 7 6 8 9 10 12 12 11 11 11 11
59 60 55 46 43 33 30 46 54 49 45 29 8 7 10 8 8 9 8 8 8 12 17 16 14 13 11 8 9 14 10 7 11 9 7 10 9 10 11 9 13 13 9 7 3 3 6 2 3 3 3 2 1 3 3 3 2 1 3 3 3 3 5 3 1 1 2 2 3 3 2 5 3 6 10 8 7 7 7 8 10 13 14 14 14 13 12 12
59 58 50 44 46 38 35 47 51 47 39 19 7 9 9 6 8 7 7 11 12 16 17 13 11 12 13 10 10 15 12 9 12 9 7 9 8 12 14 10 14 16 11 7 3 2 6 2 3 2 3 3 3 3 3 4 2 4 3 4 3 2 3 2 1 1 1 4 3 4 4 4 2 4 6 5 7 8 7 7 8 10 11 13 15 14 13 12
57 53 45 44 49 42 38 45 49 46 29 10 8 12 9 6 5 6 11 14 15 17 14 10 10 10 13 12 10 15 14 10 12 9 8 8 6 12 15 10 13 18 16 11 4 2 6 4 3 3 1 2 3 2 2 4 4 3 3 2 3 2 1 1 2 1 2 4 4 3 6 4 4 4 4 2 7 9 7 6 6 7 10 14 15 15 14 13
50 41 33 41 51 41 37 44 46 38 18 7 11 11 8 6 3 9 19 18 15 15 11 9 10 9 12 12 10 14 14 11 12 9 7 7 4 10 17 11 10 17 19 13 5 3 5 4 1 2 2 1 2 0 4 1 2 1 2 2 2 2 4 3 2 2 2 3 4 4 3 3 5 6 5 7 8 6 5 6 5 5 8 10 11 12 14 15
45 27 19 41 52 38 38 43 36 24 11 9 12 8 7 7 4 14 27 24 12 9 9 9 10 10 11 11 10 12 11 10 11 8 5 7 5 7 15 12 9 14 15 10 5 3 3 3 3 1 3 1 1 2 5 5 4 2 2 2 1 2 3 1 2 2 2 2 4 3 2 5 5 4 6 8 5 2 4 5 3 2 2 4 6 8 11 14
41 15 14 43 49 39 42 34 19 13 9 10 11 7 8 6 4 12 24 27 14 3 6 10 10 11 11 11 11 10 9 8 10 8 4 8 8 5 9 11 12 13 11 6 4 3 2 3 5 3 1 2 2 1 1 3 5 5 4 6 6 4 4 2 3 3 3 2 3 3 4 6 5 2 2 2 1 2 3 4 2 2 3 4 6 6 10 12
30 6 17 47 49 45 42 20 10 12 9 10 9 5 8 8 8 11 16 22 14 2 5 9 9 10 9 10 12 11 10 8 9 10 6 8 10 5 5 13 20 20 12 5 4 3 3 5 5 3 2 1 1 1 1 3 2 3 3 5 7 6 6 6 6 4 2 2 1 1 4 6 4 3 3 2 2 1 1 2 4 5 4 6 6 7 9 12
20 12 24 46 49 48 34 11 10 11 5 9 9 4 8 9 8 10 11 13 9 3 6 8 9 11 8 8 12 12 12 9 10 13 9 8 8 7 11 19 24 19 10 5 5 3 4 5 4 3 1 2 2 1 2 3 1 1 4 3 5 6 6 6 5 4 3 3 2 2 5 5 4 3 3 6 7 6 7 7 7 7 5 6 7 7 9 12
22 24 29 39 46 42 23 9 14 13 7 12 12 5 7 7 8 11 10 9 7 5 6 7 9 10 7 8 10 13 13 9 8 11 9 7 6 5 15 24 23 15 9 8 10 8 5 3 5 5 2 2 2 2 3 3 2 1 2 1 2 3 5 4 2 3 2 5 6 5 6 5 4 4 5 7 8 8 10 8 7 8 7 6 8 8 9 13
21 19 22 33 44 38 17 5 8 12 11 14 13 9 8 6 8 13 14 9 6 6 5 5 9 8 6 7 7 10 13 8 5 8 7 6 3 2 10 25 24 14 10 13 17 14 7 4 6 6 6 6 5 4 4 3 3 1 0 3 4 4 7 5 2 3 4 6 7 5 6 6 4 4 5 7 6 7 10 9 8 9 8 7 9 9 9 12
11 7 11 20 30 31 18 6 3 7 12 12 10 10 11 6 2 9 15 10 6 8 6 4 9 9 7 9 8 9 14 7 4 6 6 6 3 4 3 18 19 12 13 20 23 16 4 3 7 8 9 9 6 4 6 8 7 5 5 7 8 7 7 5 3 4 5 5 5 6 7 10 9 5 5 6 6 6 8 8 9 10 10 9 10 9 9 10
3 7 10 11 15 18 14 9 6 7 13 15 10 9 14 11 4 5 7 5 8 12 7 4 9 9 8 13 10 9 14 9 6 8 7 5 3 2 5 8 8 10 15 20 22 14 3 3 8 9 10 8 5 7 10 11 9 10 10 9 9 8 8 7 6 7 6 4 7 8 8 12 13 9 8 8 7 6 7 10 11 10 10 10 9 8 8 9
3 4 9 12 11 11 13 14 14 13 16 18 11 9 15 14 11 8 2 3 10 12 7 5 10 13 14 15 10 7 10 8 6 8 8 5 4 3 5 8 6 5 10 12 12 8 4 5 7 7 8 6 4 8 11 11 9 10 12 12 11 11 10 11 12 11 8 6 9 10 11 15 14 10 9 9 8 8 10 13 12 10 10 10 8 7 8 9
4 2 5 10 5 6 12 14 14 14 17 18 11 11 17 17 16 12 4 5 9 9 8 9 10 13 15 13 10 9 11 10 8 8 7 6 7 6 4 3 3 1 4 6 4 2 3 4 5 7 7 7 5 7 9 10 9 8 10 12 12 12 13 14 15 15 14 13 13 14 15 17 15 10 9 10 12 15 16 13 11 11 11 10 8 7 7 10
4 3 2 4 0 4 10 10 9 9 12 14 11 10 15 18 18 13 7 10 12 9 9 12 12 13 13 12 11 9 12 13 10 8 8 9 7 5 3 4 3 1 2 5 2 1 2 4 5 7 5 6 7 8 8 9 8 7 8 9 9 11 12 14 14 14 13 13 15 15 13 15 15 11 9 11 12 13 11 10 12 14 13 11 9 7 9 12
6 5 4 2 1 5 10 9 9 9 9 12 12 10 12 17 19 14 7 9 14 13 12 14 14 11 10 12 13 10 11 11 10 14 18 16 14 11 6 7 10 7 3 5 5 2 2 3 3 6 5 6 7 8 5 5 4 0 5 8 11 12 11 12 12 11 10 10 11 11 12 14 13 8 10 14 12 10 10 12 15 15 13 11 12 12 15 18
7 8 7 4 2 2 8 10 10 10 9 11 13 12 11 14 17 16 7 2 7 13 16 15 14 10 9 13 14 13 14 14 15 22 25 20 19 17 12 14 19 15 7 5 5 3 5 5 3 6 6 5 4 8 7 8 5 3 9 14 16 14 12 10 9 10 12 11 9 10 13 14 9 5 9 14 10 9 13 17 18 17 17 19 20 19 21 23
Wind_Direction
227 219 216 214 213 213 212 213 212 209 212 214 216 219 218 214 210 209 208 207 209 209 208 208 208 210 210 212 215 215 216 224 229 230 230 222 216 220 220 210 215 227 217 216 229 320 316 11 5 340 329 314 253 248 241 223 228 221 233 222 219 239 216 208 191 136 127 138 148 168 167 149 151 165 147 128 118 137 145 134 147 166 149 124 132 156 168 170
227 220 214 213 213 213 214 213 211 208 210 213 215 218 218 215 212 210 209 209 211 210 210 210 209 211 211 212 215 216 223 231 238 240 234 222 215 222 218 202 207 217 209 209 220 257 332 321 336 341 322 296 267 243 236 218 213 211 231 221 225 236 204 16 53 85 99 149 158 168 174 160 158 167 156 158 143 142 151 152 163 164 148 139 146 163 174 175
229 220 211 213 213 211 214 214 209 208 208 211 214 216 218 217 214 212 211 211 212 213 212 212 211 211 210 211 214 217 228 234 241 242 235 223 217 220 216 203 201 205 203 203 209 214 295 310 305 334 321 287 270 237 223 210 204 217 232 236 241 270 70 39 59 68 79 141 155 162 182 175 158 165 166 173 160 160 180 169 168 170 165 157 158 173 182 180
229 226 214 213 215 210 211 213 208 207 207 209 213 215 217 217 216 214 214 213 213 215 214 213 212 211 210 208 209 212 219 230 246 244 235 223 217 216 213 206 202 201 198 196 201 203 242 300 298 326 317 289 268 231 210 203 197 205 205 226 298 350 45 45 65 81 90 133 154 158 179 177 155 165 175 177 167 178 204 191 183 184 185 174 166 178 187 185
226 229 223 214 214 209 207 211 206 205 206 206 210 213 216 217 217 215 215 215 215 216 214 214 212 210 209 205 206 202 196 212 267 252 236 222 214 210 209 206 205 203 194 191 197 199 224 279 290 318 306 288 267 227 205 212 204 222 230 231 359 3 38 45 63 97 100 129 149 153 172 163 149 162 177 185 193 178 196 203 198 193 198 191 178 183 189 189
223 225 228 215 211 208 204 207 204 203 204 205 208 210 214 215 217 216 216 217 217 218 215 214 211 209 206 202 205 195 188 198 330 279 229 217 207 201 205 202 200 201 195 187 190 195 222 266 269 264 269 278 266 232 220 216 205 230 245 219 47 36 62 53 87 106 100 123 142 155 167 152 144 158 184 201 210 154 172 190 191 191 201 202 189 191 195 194
219 220 227 214 209 209 203 205 203 201 203 205 206 207 211 212 215 216 215 216 216 217 215 212 210 207 200 197 200 192 197 219 260 319 207 202 201 196 199 196 189 192 192 183 183 199 231 260 247 234 248 261 265 256 230 205 195 221 245 167 89 74 95 115 137 121 105 109 137 163 161 152 162 172 194 209 195 144 154 165 170 181 192 194 191 197 202 202
215 218 226 216 211 210 201 202 201 198 201 204 205 204 206 208 211 213 213 212 210 211 210 208 206 203 198 194 189 186 205 222 235 275 191 187 195 194 193 189 183 184 189 185 183 200 230 250 238 235 242 251 268 289 247 191 179 227 235 140 133 99 120 135 145 141 119 115 134 162 164 157 178 184 196 204 190 162 164 156 161 168 180 188 192 197 200 203
211 214 225 218 210 209 200 199 199 196 197 202 205 202 200 201 204 209 210 208 204 204 203 201 201 198 196 192 185 188 217 222 221 240 203 183 191 193 191 187 183 180 186 188 186 201 229 238 235 233 225 256 272 296 283 222 176 231 209 142 138 116 133 124 130 149 137 149 137 152 165 145 173 185 200 206 201 192 192 178 167 163 172 185 193 197 200 203
210 209 221 218 205 204 199 197 196 194 195 200 204 200 197 198 199 204 206 204 201 199 194 191 192 191 188 185 184 198 223 224 217 225 211 184 187 188 189 187 185 182 181 184 189 205 229 224 235 241 226 257 276 283 287 284 319 261 163 122 124 121 133 128 124 148 146 162 165 181 171 114 157 183 220 211 202 203 200 188 178 173 178 187 196 201 204 207
209 205 217 220 204 198 195 195 196 193 195 198 201 198 194 197 198 199 201 201 198 191 184 182 183 185 183 182 189 204 214 218 210 212 198 181 184 183 183 182 183 181 175 178 188 207 227 224 244 249 212 243 270 277 284 267 308 327 131 111 119 129 121 138 132 150 156 156 179 205 143 102 118 195 232 199 189 200 201 192 189 186 185 189 199 206 209 212
209 204 213 219 203 195 192 193 196 194 194 195 197 196 193 195 195 195 198 197 192 184 176 176 180 180 180 188 200 209 212 199 192 192 185 182 184 183 180 176 177 179 176 179 189 209 228 226 240 244 218 246 252 267 289 246 276 299 154 133 142 149 144 170 160 166 180 163 170 174 355 184 176 214 222 190 179 191 197 198 198 193 190 190 196 202 207 212
206 204 212 216 199 190 190 192 194 192 190 192 193 192 192 194 193 193 195 192 185 179 172 173 178 174 176 199 211 211 219 189 185 184 177 183 184 181 177 174 174 179 185 192 199 221 233 222 230 246 247 263 262 263 314 238 249 243 235 233 154 170 203 182 166 168 177 157 169 162 303 229 216 216 212 192 187 187 186 197 201 198 195 194 196 198 205 208
203 203 210 213 197 186 188 190 191 188 186 187 187 189 190 192 193 193 191 186 180 175 170 170 172 172 179 208 213 211 214 180 191 199 191 186 181 176 176 175 176 181 186 192 203 227 237 222 227 246 251 252 271 295 33 72 258 213 240 251 185 183 184 175 160 161 162 163 179 160 278 250 248 204 193 188 193 189 187 193 198 200 197 197 201 203 209 210
202 200 205 206 193 186 187 189 189 185 182 181 183 187 188 191 192 192 189 181 176 173 168 169 170 171 188 213 209 209 210 186 193 203 199 196 184 177 175 174 180 190 195 196 203 223 235 224 226 237 248 239 252 296 168 171 245 211 209 223 215 201 158 161 170 176 168 160 185 171 245 255 348 142 169 181 187 187 191 193 195 200 199 199 204 209 215 217
204 197 201 203 189 184 186 185 184 181 179 177 178 184 186 189 190 190 187 173 171 172 166 169 171 167 190 209 198 200 203 197 192 194 194 195 184 177 176 178 190 203 205 204 208 219 226 220 219 227 236 214 201 260 237 205 215 217 209 185 197 208 169 156 204 205 161 127 192 216 265 244 69 135 163 175 182 187 194 196 196 200 202 202 206 212 215 218
203 194 198 197 184 181 182 179 179 177 175 172 173 178 179 183 186 184 176 166 167 169 166 170 170 168 226 212 190 192 197 197 193 186 183 183 176 177 182 187 196 203 198 200 207 208 207 201 202 221 223 206 184 200 221 216 208 217 209 203 203 193 175 159 221 217 164 138 198 217 252 255 192 161 175 186 188 193 204 205 200 199 202 206 209 215 217 218
199 193 195 189 179 178 177 174 176 173 169 169 168 171 173 177 180 175 166 160 154 152 156 169 170 172 239 208 191 190 196 196 194 186 178 176 174 180 187 189 189 187 179 181 191 188 187 186 185 203 199 201 208 198 208 204 191 192 188 215 222 195 186 177 176 178 174 195 210 188 226 257 233 171 184 199 193 195 208 212 209 204 201 206 211 215 219 221
192 192 195 187 178 174 173 172 173 172 167 165 164 163 161 160 163 166 162 155 151 149 165 180 176 172 270 199 191 187 193 195 194 190 181 176 171 176 181 182 179 170 160 163 180 182 179 169 180 206 194 196 207 206 219 224 209 196 184 199 219 202 188 164 139 157 154 189 218 192 207 239 240 206 190 200 196 196 206 212 214 213 207 208 211 213 218 222
189 193 190 184 180 173 170 171 171 172 167 162 161 154 149 149 148 159 163 166 171 170 181 181 179 176 35 172 176 172 179 189 193 189 184 179 169 169 171 169 169 165 161 160 174 184 179 171 193 205 199 196 201 214 230 253 312 276 190 191 208 207 186 106 78 312 101 154 222 221 225 237 240 236 205 193 192 197 204 211 214 214 214 211 209 212 216 222
188 190 182 177 177 172 171 170 170 173 169 167 165 157 158 159 153 173 170 178 185 176 179 184 181 186 88 162 170 170 161 167 186 184 184 180 167 164 166 162 162 175 179 157 145 168 180 195 200 197 211 208 195 209 231 250 321 319 261 174 209 212 195 72 75 245 41 87 231 227 237 246 238 245 220 182 181 202 203 201 207 211 214 215 213 215 219 225
188 185 177 174 174 172 171 169 172 174 170 172 170 166 169 164 160 182 169 166 190 184 205 186 183 189 163 167 174 173 159 149 167 176 178 174 167 166 167 167 172 176 168 150 136 149 184 212 201 195 206 206 187 201 217 232 287 317 339 167 226 201 131 68 51 72 110 163 277 270 243 253 246 249 235 183 184 208 206 203 206 209 212 216 218 220 222 225
190 183 175 174 172 170 170 169 172 173 170 173 173 168 172 169 173 179 160 115 177 192 202 179 182 181 159 166 170 166 160 154 158 173 176 169 171 180 171 174 182 157 155 160 158 163 177 200 213 211 188 161 117 178 183 195 237 277 307 315 275 110 103 15 318 103 6 186 27 355 304 270 265 266 260 217 212 214 210 211 213 214 217 219 219 222 225 225
191 185 177 173 171 168 169 169 171 173 174 176 174 165 169 173 154 157 147 97 145 188 190 176 177 171 158 166 170 165 162 162 164 175 177 170 173 180 174 181 180 156 169 176 169 172 170 173 201 243 156 156 135 125 157 173 219 235 235 245 289 15 100 84 136 149 18 9 139 359 318 284 244 237 252 233 226 223 213 212 213 217 223 224 221 222 226 228
185 183 177 171 169 168 167 168 171 175 176 177 174 161 165 163 144 146 138 98 144 154 169 173 174 174 168 166 171 168 158 163 175 181 179 174 174 170 176 191 185 166 178 180 172 174 185 183 163 143 147 164 159 169 188 176 207 238 211 205 228 358 98 110 131 144 51 309 228 117 302 281 231 214 230 221 218 223 214 209 212 217 221 222 220 221 223 225
177 175 175 172 169 168 166 169 176 176 174 179 173 156 160 157 145 145 135 98 166 152 157 171 174 179 176 167 168 167 158 162 179 185 182 178 178 172 176 190 188 175 174 176 184 170 164 149 135 155 152 155 171 201 198 174 188 234 229 218 191 118 108 133 146 138 145 251 282 108 177 269 285 239 250 221 201 213 210 209 215 215 216 217 220 221 220 219
175 172 173 172 170 169 169 172 176 175 176 179 167 152 160 161 153 149 136 101 191 157 155 170 170 179 180 170 167 167 163 148 153 182 184 178 180 184 187 172 139 191 170 157 190 169 107 114 102 138 136 145 179 210 201 173 173 218 292 296 180 139 135 151 148 161 197 165 348 4 162 277 296 269 284 228 181 206 208 211 223 220 218 219 223 224 222 222
175 174 172 172 174 173 173 173 174 178 180 173 158 156 165 166 163 155 141 167 166 145 153 165 166 177 175 171 173 165 136 149 141 181 185 180 180 186 199 175 159 171 151 144 184 217 112 153 158 145 138 165 176 182 229 175 169 228 293 22 76 130 146 149 147 181 153 63 318 270 161 256 277 253 268 1 181 226 225 214 222 225 224 225 228 229 230 230
173 174 173 173 174 173 174 176 175 179 177 163 155 166 170 169 167 145 167 182 144 134 155 158 159 170 166 171 183 167 138 158 154 165 179 181 179 177 189 185 168 132 85 105 154 220 142 176 171 155 159 175 153 72 355 148 160 204 165 66 56 50 71 107 147 174 111 78 242 232 179 200 278 260 232 234 221 229 231 219 218 219 222 225 228 230 232 232
172 173 173 172 171 172 174 177 176 175 169 164 169 172 168 167 160 148 190 186 144 151 154 152 160 169 165 166 184 175 152 154 131 142 168 179 174 175 174 176 162 123 66 47 86 81 15 121 123 131 154 147 125 89 42 86 121 150 139 78 62 50 47 44 51 95 108 249 238 226 193 185 267 266 202 198 216 210 223 236 231 215 214 216 219 221 223 225
174 171 173 173 172 172 172 172 175 173 167 170 176 169 160 159 169 175 174 151 130 146 148 150 157 166 170 170 177 177 163 120 130 143 161 175 170 175 171 167 144 115 99 65 74 33 47 80 59 59 94 124 112 83 36 50 91 105 130 115 80 34 44 31 8 76 203 242 252 295 254 183 231 255 222 250 254 153 177 219 199 151 179 191 198 204 211 217
175 173 174 174 172 173 174 172 173 170 166 170 172 166 158 152 189 195 150 144 151 162 167 162 162 170 175 174 173 173 159 132 153 157 157 166 173 183 186 184 157 140 169 151 119 78 78 78 116 73 4 191 136 104 53 16 44 99 143 135 121 108 73 58 237 175 227 246 248 305 353 225 232 250 265 281 290 254 192 184 181 159 163 181 196 206 213 220
174 174 174 173 171 171 175 173 168 167 168 169 166 166 168 161 182 185 153 166 172 162 168 167 166 169 170 171 169 168 157 146 166 165 157 162 167 185 206 207 182 178 177 149 137 146 102 357 184 106 319 233 195 143 139 160 140 153 164 144 145 159 134 197 203 199 234 263 273 257 253 260 268 254 242 251 263 265 236 188 191 175 174 191 207 219 227 229
174 174 171 171 170 166 173 172 167 168 168 164 163 167 174 169 183 185 171 181 162 153 158 161 161 162 169 176 167 165 162 150 164 162 156 164 169 188 206 203 192 186 141 139 163 172 166 244 202 142 155 197 195 201 151 148 150 179 177 138 155 182 171 188 182 197 220 252 317 291 223 196 211 248 239 238 251 260 231 199 206 195 193 198 209 228 240 243
173 172 170 171 170 165 171 171 168 169 164 159 165 178 169 173 183 185 178 161 150 154 153 153 155 159 173 178 161 168 173 150 162 164 162 176 183 188 192 194 192 184 156 156 176 176 173 200 288 335 315 170 170 306 8 117 136 205 157 115 168 206 153 143 184 183 171 49 307 259 253 221 212 275 282 266 253 243 223 221 222 218 217 216 224 236 242 248
169 168 169 171 171 170 173 173 171 169 162 158 170 184 181 192 183 180 170 152 156 154 147 151 158 161 171 172 163 173 172 152 164 170 175 185 194 192 189 192 189 188 184 164 145 160 165 197 320 342 1 44 71 321 358 91 156 168 133 152 192 166 112 115 267 8 105 286 260 182 252 279 274 290 278 251 241 242 226 218 222 227 227 224 227 232 234 241
166 166 168 170 174 176 176 176 172 165 164 167 177 179 195 206 179 170 144 140 149 149 147 154 166 168 169 171 176 174 164 157 169 175 177 183 199 194 191 195 187 192 196 162 134 183 144 101 332 16 42 10 5 13 32 29 62 115 152 186 167 95 76 115 249 340 108 255 254 164 210 257 232 268 279 231 225 249 240 214 220 225 223 225 230 231 231 237
165 164 166 169 177 179 177 177 171 165 166 182 188 187 200 193 176 163 145 140 148 154 157 160 165 176 176 172 176 171 162 163 175 179 175 180 203 188 186 193 186 193 196 165 137 175 133 97 346 10 26 292 350 58 101 6 18 111 173 165 122 142 206 152 192 237 229 249 272 227 218 229 197 221 307 264 224 245 242 204 197 213 219 228 236 237 231 230
160 158 162 173 180 181 177 173 168 166 170 190 193 196 191 175 162 156 151 147 151 160 164 164 161 173 181 174 164 165 169 171 173 177 177 182 208 185 181 186 180 188 193 175 156 176 141 121 233 326 335 243 356 90 178 180 5 47 47 42 67 147 176 175 194 216 223 242 272 267 230 245 227 211 238 243 228 230 217 187 187 219 228 235 249 250 236 227
156 153 164 178 182 179 171 166 164 170 186 195 193 189 171 172 169 160 155 150 153 165 166 167 163 165 173 169 157 163 174 171 169 181 188 176 186 191 185 182 168 176 182 167 144 155 127 106 152 297 340 168 175 236 188 170 168 155 108 127 124 98 121 161 259 208 161 205 260 272 259 265 254 214 221 235 231 180 156 155 177 238 246 246 260 259 240 230
156 150 165 177 182 173 161 161 166 181 196 196 194 182 165 161 144 159 158 152 151 168 166 163 165 166 163 160 160 165 170 167 171 182 189 175 178 205 198 174 153 160 166 149 140 158 124 106 132 141 187 195 213 267 197 185 178 172 172 171 169 149 118 128 252 223 165 193 228 236 262 267 268 305 311 247 131 118 136 131 163 254 274 259 251 245 238 232
157 137 165 177 181 169 159 161 182 191 195 188 188 170 150 145 145 162 160 154 152 140 157 160 166 168 163 162 163 163 165 170 176 181 192 189 183 194 194 160 152 159 161 142 156 161 105 99 108 125 166 204 265 287 285 281 228 166 206 190 171 170 154 168 213 211 187 228 191 214 267 267 262 298 339 336 344 309 241 214 232 251 268 275 268 246 231 225
149 117 156 177 179 168 163 170 183 191 206 177 178 153 144 150 148 157 159 155 154 139 149 160 167 169 168 163 160 161 166 170 182 187 187 183 180 187 183 164 155 159 157 135 159 156 104 101 101 93 33 348 319 307 310 300 284 197 238 209 177 187 174 172 187 157 166 209 161 209 257 261 272 302 330 312 305 293 273 259 259 272 281 284 283 262 232 220
123 116 142 172 178 173 173 182 179 186 187 178 185 166 149 161 154 158 165 160 156 152 149 155 164 168 168 161 158 164 170 171 187 192 182 172 181 191 181 168 159 162 171 168 172 170 152 136 122 116 90 11 350 314 282 266 240 260 270 179 184 179 138 124 126 124 185 206 177 199 245 249 272 316 332 312 307 299 286 278 282 288 287 282 280 272 245 225
114 113 132 161 176 184 194 202 182 185 177 179 186 170 152 157 163 167 165 152 145 146 137 142 149 143 136 144 142 159 175 179 174 177 174 162 159 317 180 169 165 169 178 169 163 160 161 162 149 148 166 181 195 212 208 181 171 277 322 157 183 172 150 150 144 157 217 214 183 200 248 251 265 329 331 308 300 296 290 286 282 278 274 272 270 266 251 235
121 119 124 150 177 196 218 256 237 185 175 176 183 175 165 150 149 168 158 153 157 145 125 120 134 126 134 149 138 159 184 185 128 156 166 140 124 341 167 162 164 166 161 157 154 148 136 183 173 180 193 191 189 171 134 124 143 195 203 181 186 189 177 159 135 178 208 219 211 218 242 255 259 268 287 285 270 266 276 278 272 269 266 261 256 253 247 239
100 153 148 151 176 200 227 255 243 190 177 179 178 176 173 161 140 157 152 156 165 149 128 123 143 145 162 163 152 166 182 172 128 149 152 117 104 24 71 112 132 145 146 152 153 140 99 200 189 195 204 190 146 137 143 140 156 189 196 190 190 189 177 170 196 210 189 201 239 231 232 252 255 243 244 255 253 250 262 267 266 268 267 261 254 248 247 245
56 159 173 172 175 190 204 209 205 192 180 182 179 169 172 167 162 170 150 123 158 152 133 143 167 172 171 166 159 158 168 167 157 161 149 117 121 111 62 48 57 123 137 144 152 134 112 190 194 192 208 206 155 144 152 157 171 185 189 194 195 187 180 186 210 219 196 204 240 232 229 245 250 242 238 238 228 230 250 261 259 256 256 256 251 244 251 258
75 66 179 180 187 205 193 185 186 187 181 181 182 172 173 174 173 172 136 123 162 169 155 160 178 179 173 170 162 155 167 175 177 172 145 127 139 132 100 67 59 77 117 124 141 86 104 177 185 172 205 234 204 166 158 166 181 187 192 199 194 188 192 197 208 217 211 217 234 234 237 247 249 241 237 236 231 235 246 248 233 230 240 246 247 251 267 273
86 51 152 182 269 185 177 163 164 182 184 183 188 183 179 181 178 170 155 160 170 175 171 172 177 175 172 174 171 178 188 179 169 163 136 127 147 153 139 148 143 121 112 126 135 351 123 175 171 154 189 243 212 185 173 170 179 192 202 205 191 187 200 209 215 219 215 222 236 243 252 257 253 243 247 257 247 232 229 217 210 224 238 242 250 269 285 281
98 93 100 125 74 169 170 165 172 182 182 186 191 184 183 189 181 168 167 182 177 176 179 174 168 165 168 178 185 193 186 168 153 159 156 154 167 171 161 157 151 148 159 151 154 169 165 179 156 139 173 234 206 177 151 109 93 270 242 218 198 192 198 208 214 212 207 218 236 248 253 253 252 251 259 263 248 214 211 217 222 233 242 252 266 275 278 276
92 101 106 103 53 189 174 166 178 187 183 190 192 180 183 191 180 168 166 200 184 182 181 170 158 158 173 186 195 193 178 169 165 166 165 166 168 162 152 157 157 155 158 153 152 156 148 148 141 145 177 234 189 148 117 77 62 274 241 215 205 204 202 204 214 214 208 206 213 229 240 246 250 248 257 262 247 213 221 228 232 242 249 254 261 264 269 274